| time (UTC) | temp F | wind direction | speed MPH | gust MPH | rain 1hr in | rain 24hr in | rain mn in | humidity % | barometer mb |
| 20260831191625 | 92 | 228 | 4.0 | 6.0 | 0.00 | 0.00 | 0.00 | 68 | 1013.1 |
| 20260831191121 | 92 | 169 | 3.0 | 6.0 | 0.00 | 0.00 | 0.00 | 68 | 1013.1 |
| 20260831190616 | 92 | 199 | 4.0 | 7.0 | 0.00 | 0.00 | 0.00 | 67 | 1013.0 |
| 20260831190115 | 93 | 190 | 5.0 | 8.0 | 0.00 | 0.00 | 0.00 | 65 | 1013.2 |
| 20260831185611 | 94 | 250 | 2.0 | 3.0 | 0.00 | 0.00 | 0.00 | 62 | 1013.2 |
| 20260831185106 | 92 | 222 | 4.0 | 7.0 | 0.00 | 0.00 | 0.00 | 66 | 1013.3 |
| 20260831184605 | 93 | 210 | 5.0 | 6.0 | 0.00 | 0.00 | 0.00 | 64 | 1013.2 |
| 20260831184101 | 92 | 238 | 6.0 | 7.0 | 0.00 | 0.00 | 0.00 | 67 | 1013.2 |
| 20260831183600 | 92 | 216 | 4.0 | 6.0 | 0.00 | 0.00 | 0.00 | 65 | 1013.3 |
| 20260831183054 | 92 | 287 | 2.0 | 6.0 | 0.00 | 0.00 | 0.00 | 65 | 1013.2 |
| 20260831182549 | 91 | 212 | 5.0 | 6.0 | 0.00 | 0.00 | 0.00 | 67 | 1013.3 |
| 20260831182044 | 92 | 260 | 5.0 | 8.0 | 0.00 | 0.00 | 0.00 | 68 | 1013.1 |
| 20260831181539 | 92 | 228 | 4.0 | 6.0 | 0.00 | 0.00 | 0.00 | 65 | 1013.1 |
| 20260831181038 | 91 | 279 | 1.0 | 5.0 | 0.00 | 0.00 | 0.00 | 65 | 1013.2 |
| 20260831180534 | 91 | 248 | 3.0 | 5.0 | 0.00 | 0.00 | 0.00 | 66 | 1013.1 |
| 20260831180028 | 91 | 215 | 3.0 | 5.0 | 0.00 | 0.00 | 0.00 | 68 | 1013.0 |
| 20260831175524 | 92 | 170 | 2.0 | 6.0 | 0.00 | 0.00 | 0.00 | 67 | 1012.9 |
| 20260831175021 | 91 | 226 | 2.0 | 2.0 | 0.00 | 0.00 | 0.00 | 66 | 1013.2 |
| 20260831174520 | 90 | 246 | 2.0 | 3.0 | 0.00 | 0.00 | 0.00 | 68 | 1013.1 |
| 20260831174015 | 90 | 279 | 1.0 | 6.0 | 0.00 | 0.00 | 0.00 | 68 | 1013.3 |
| 20260831173513 | 90 | 192 | 2.0 | 5.0 | 0.00 | 0.00 | 0.00 | 67 | 1013.0 |
| 20260831173010 | 92 | 220 | 1.0 | 5.0 | 0.00 | 0.00 | 0.00 | 64 | 1013.2 |
| 20260831172504 | 90 | 155 | 2.0 | 3.0 | 0.00 | 0.00 | 0.00 | 67 | 1013.1 |
| 20260831171959 | 89 | 162 | 3.0 | 6.0 | 0.00 | 0.00 | 0.00 | 70 | 1013.3 |
| 20260831171455 | 89 | 228 | 3.0 | 6.0 | 0.00 | 0.00 | 0.00 | 70 | 1013.2 |
| 20260831170952 | 89 | 278 | 1.0 | 3.0 | 0.00 | 0.00 | 0.00 | 70 | 1013.1 |
| 20260831170448 | 89 | 222 | 2.0 | 3.0 | 0.00 | 0.00 | 0.00 | 69 | 1013.2 |
| 20260831165945 | 88 | 230 | 3.0 | 3.0 | 0.00 | 0.00 | 0.00 | 70 | 1013.0 |
| 20260831165440 | 88 | 285 | 1.0 | 3.0 | 0.00 | 0.00 | 0.00 | 69 | 1013.1 |
| 20260831164937 | 89 | 175 | 3.0 | 5.0 | 0.00 | 0.00 | 0.00 | 68 | 1013.0 |
| 20260831164432 | 89 | 234 | 3.0 | 5.0 | 0.00 | 0.00 | 0.00 | 69 | 1012.9 |
| 20260831163927 | 87 | 172 | 3.0 | 7.0 | 0.00 | 0.00 | 0.00 | 70 | 1012.8 |
| 20260831163422 | 86 | 199 | 4.0 | 5.0 | 0.00 | 0.00 | 0.00 | 70 | 1012.8 |
| 20260831162921 | 86 | 230 | 2.0 | 5.0 | 0.00 | 0.00 | 0.00 | 71 | 1012.8 |
| 20260831162416 | 87 | 170 | 3.0 | 5.0 | 0.00 | 0.00 | 0.00 | 68 | 1012.7 |
| 20260831161914 | 86 | 255 | 3.0 | 8.0 | 0.00 | 0.00 | 0.00 | 71 | 1012.8 |
| 20260831161411 | 86 | 268 | 3.0 | 3.0 | 0.00 | 0.00 | 0.00 | 69 | 1012.8 |
| 20260831160906 | 85 | 246 | 3.0 | 5.0 | 0.00 | 0.00 | 0.00 | 71 | 1012.9 |
| 20260831160401 | 85 | 211 | 3.0 | 5.0 | 0.00 | 0.00 | 0.00 | 71 | 1012.8 |
| 20260831155856 | 86 | 208 | 3.0 | 5.0 | 0.00 | 0.00 | 0.00 | 70 | 1012.8 |
| 20260831155351 | 86 | 290 | 3.0 | 3.0 | 0.00 | 0.00 | 0.00 | 70 | 1012.6 |
| 20260831154846 | 84 | 264 | 0.0 | 1.0 | 0.00 | 0.00 | 0.00 | 72 | 1012.7 |
| 20260831154343 | 84 | 282 | 0.0 | 2.0 | 0.00 | 0.00 | 0.00 | 73 | 1012.9 |
| 20260831153841 | 85 | 253 | 1.0 | 2.0 | 0.00 | 0.00 | 0.00 | 71 | 1012.7 |
| 20260831153337 | 85 | 266 | 1.0 | 2.0 | 0.00 | 0.00 | 0.00 | 69 | 1012.5 |
| 20260831152833 | 86 | 268 | 3.0 | 6.0 | 0.00 | 0.00 | 0.00 | 69 | 1013.0 |
| 20260831152329 | 86 | 272 | 2.0 | 3.0 | 0.00 | 0.00 | 0.00 | 70 | 1012.9 |
| 20260831151824 | 86 | 251 | 3.0 | 7.0 | 0.00 | 0.00 | 0.00 | 68 | 1012.8 |
| 20260831151322 | 86 | 105 | 2.0 | 3.0 | 0.00 | 0.00 | 0.00 | 69 | 1012.9 |
| 20260831150818 | 85 | 297 | 3.0 | 5.0 | 0.00 | 0.00 | 0.00 | 69 | 1013.0 |
| 20260831150314 | 84 | 210 | 3.0 | 6.0 | 0.00 | 0.00 | 0.00 | 70 | 1012.9 |
| 20260831145812 | 83 | 285 | 3.0 | 6.0 | 0.00 | 0.00 | 0.00 | 71 | 1013.0 |
| 20260831145309 | 83 | 233 | 4.0 | 7.0 | 0.00 | 0.00 | 0.00 | 71 | 1012.9 |
| 20260831144804 | 82 | 233 | 6.0 | 8.0 | 0.00 | 0.00 | 0.00 | 72 | 1012.9 |
| 20260831144301 | 83 | 206 | 6.0 | 11.0 | 0.00 | 0.00 | 0.00 | 70 | 1013.0 |
| 20260831143800 | 83 | 221 | 4.0 | 8.0 | 0.00 | 0.00 | 0.00 | 70 | 1013.0 |
| 20260831143255 | 82 | 234 | 2.0 | 7.0 | 0.00 | 0.00 | 0.00 | 71 | 1012.8 |
| 20260831142750 | 82 | 230 | 5.0 | 7.0 | 0.00 | 0.00 | 0.00 | 71 | 1012.8 |
| 20260831142246 | 82 | 219 | 3.0 | 6.0 | 0.00 | 0.00 | 0.00 | 71 | 1012.6 |
| 20260831141745 | 82 | 251 | 3.0 | 7.0 | 0.00 | 0.00 | 0.00 | 72 | 1012.7 |
| 20260831141245 | 82 | 242 | 1.0 | 3.0 | 0.00 | 0.00 | 0.00 | 73 | 1012.6 |
| 20260831140740 | 81 | 201 | 5.0 | 6.0 | 0.00 | 0.00 | 0.00 | 73 | 1012.7 |
| 20260831140234 | 80 | 229 | 3.0 | 6.0 | 0.00 | 0.00 | 0.00 | 75 | 1012.5 |
| 20260831135732 | 80 | 192 | 3.0 | 5.0 | 0.00 | 0.00 | 0.00 | 74 | 1012.6 |
| 20260831135228 | 79 | 219 | 5.0 | 8.0 | 0.00 | 0.00 | 0.00 | 75 | 1012.5 |
| 20260831134723 | 79 | 210 | 2.0 | 6.0 | 0.00 | 0.00 | 0.00 | 75 | 1012.4 |
| 20260831134220 | 79 | 240 | 4.0 | 6.0 | 0.00 | 0.00 | 0.00 | 75 | 1012.5 |
| 20260831133718 | 79 | 212 | 3.0 | 8.0 | 0.00 | 0.00 | 0.00 | 76 | 1012.6 |
| 20260831133213 | 79 | 222 | 3.0 | 6.0 | 0.00 | 0.00 | 0.00 | 75 | 1012.5 |
| 20260831132709 | 78 | 233 | 2.0 | 8.0 | 0.00 | 0.00 | 0.00 | 76 | 1012.3 |
| 20260831132203 | 78 | 227 | 4.0 | 6.0 | 0.00 | 0.00 | 0.00 | 76 | 1012.4 |
| 20260831131702 | 78 | 251 | 3.0 | 5.0 | 0.00 | 0.00 | 0.00 | 76 | 1012.3 |
| 20260831131159 | 78 | 212 | 3.0 | 5.0 | 0.00 | 0.00 | 0.00 | 76 | 1012.2 |
| 20260831130654 | 77 | 178 | 4.0 | 7.0 | 0.00 | 0.00 | 0.00 | 77 | 1012.1 |
| 20260831130149 | 77 | 259 | 3.0 | 5.0 | 0.00 | 0.00 | 0.00 | 77 | 1012.0 |
| 20260831125648 | 76 | 231 | 4.0 | 6.0 | 0.00 | 0.00 | 0.00 | 78 | 1012.0 |
| 20260831125143 | 77 | 225 | 5.0 | 7.0 | 0.00 | 0.00 | 0.00 | 78 | 1011.7 |
| 20260831124639 | 77 | 218 | 5.0 | 9.0 | 0.00 | 0.00 | 0.00 | 78 | 1011.6 |
| 20260831124135 | 76 | 222 | 7.0 | 8.0 | 0.00 | 0.00 | 0.00 | 77 | 1011.8 |
| 20260831123630 | 76 | 219 | 4.0 | 6.0 | 0.00 | 0.00 | 0.00 | 78 | 1011.5 |
| 20260831123129 | 76 | 217 | 9.0 | 13.0 | 0.00 | 0.00 | 0.00 | 77 | 1011.5 |
| 20260831122628 | 76 | 180 | 3.0 | 7.0 | 0.00 | 0.00 | 0.00 | 79 | 1011.5 |
| 20260831122125 | 76 | 203 | 5.0 | 8.0 | 0.00 | 0.00 | 0.00 | 78 | 1011.4 |
| 20260831121624 | 76 | 218 | 7.0 | 8.0 | 0.00 | 0.00 | 0.00 | 78 | 1011.6 |
| 20260831121121 | 76 | 208 | 7.0 | 13.0 | 0.00 | 0.00 | 0.00 | 78 | 1011.2 |
| 20260831120620 | 76 | 253 | 6.0 | 9.0 | 0.00 | 0.00 | 0.00 | 78 | 1011.4 |
| 20260831120115 | 76 | 221 | 7.0 | 9.0 | 0.00 | 0.00 | 0.00 | 78 | 1011.4 |
| 20260831115612 | 75 | 215 | 6.0 | 9.0 | 0.00 | 0.00 | 0.00 | 78 | 1011.2 |
| 20260831115107 | 75 | 166 | 5.0 | 8.0 | 0.00 | 0.00 | 0.00 | 79 | 1011.2 |
| 20260831114606 | 75 | 212 | 6.0 | 9.0 | 0.00 | 0.00 | 0.00 | 78 | 1011.2 |
| 20260831114101 | 76 | 193 | 5.0 | 7.0 | 0.00 | 0.00 | 0.00 | 78 | 1011.3 |
| 20260831113600 | 75 | 219 | 5.0 | 7.0 | 0.00 | 0.00 | 0.00 | 79 | 1011.3 |
| 20260831113056 | 75 | 222 | 4.0 | 7.0 | 0.00 | 0.00 | 0.00 | 79 | 1011.4 |
| 20260831112554 | 75 | 229 | 4.0 | 5.0 | 0.00 | 0.00 | 0.00 | 79 | 1011.3 |
| 20260831112050 | 75 | 187 | 4.0 | 5.0 | 0.00 | 0.00 | 0.00 | 78 | 1011.1 |
| 20260831111546 | 76 | 235 | 3.0 | 5.0 | 0.00 | 0.00 | 0.00 | 78 | 1011.2 |
| 20260831111041 | 75 | 260 | 1.0 | 6.0 | 0.00 | 0.00 | 0.00 | 78 | 1011.2 |
| 20260831110536 | 75 | 252 | 3.0 | 3.0 | 0.00 | 0.00 | 0.00 | 79 | 1011.1 |
| 20260831110026 | 75 | 250 | 2.0 | 5.0 | 0.00 | 0.00 | 0.00 | 79 | 1011.0 |
| 20260831105525 | 75 | 229 | 3.0 | 3.0 | 0.00 | 0.00 | 0.00 | 80 | 1010.9 |
| 20260831105020 | 75 | 236 | 2.0 | 3.0 | 0.00 | 0.00 | 0.00 | 79 | 1010.9 |
| 20260831104516 | 76 | 232 | 2.0 | 5.0 | 0.00 | 0.00 | 0.00 | 79 | 1010.7 |
| 20260831104013 | 76 | 210 | 3.0 | 5.0 | 0.00 | 0.00 | 0.00 | 78 | 1010.6 |
| 20260831103513 | 76 | 224 | 4.0 | 6.0 | 0.00 | 0.00 | 0.00 | 78 | 1010.7 |
| 20260831103009 | 76 | 196 | 3.0 | 6.0 | 0.00 | 0.00 | 0.00 | 78 | 1010.7 |
| 20260831102503 | 76 | 213 | 3.0 | 5.0 | 0.00 | 0.00 | 0.00 | 79 | 1010.7 |
| 20260831101958 | 76 | 206 | 3.0 | 5.0 | 0.00 | 0.00 | 0.00 | 78 | 1010.6 |
| 20260831101453 | 76 | 223 | 4.0 | 6.0 | 0.00 | 0.00 | 0.00 | 78 | 1010.6 |
| 20260831100949 | 76 | 217 | 4.0 | 5.0 | 0.00 | 0.00 | 0.00 | 78 | 1010.7 |
| 20260831100445 | 76 | 180 | 3.0 | 5.0 | 0.00 | 0.00 | 0.00 | 78 | 1010.6 |
| 20260831095940 | 77 | 196 | 3.0 | 6.0 | 0.00 | 0.00 | 0.00 | 77 | 1010.6 |
| 20260831095439 | 76 | 214 | 4.0 | 6.0 | 0.00 | 0.00 | 0.00 | 77 | 1010.7 |
| 20260831094933 | 76 | 201 | 4.0 | 6.0 | 0.00 | 0.00 | 0.00 | 78 | 1010.7 |
| 20260831094430 | 76 | 221 | 3.0 | 6.0 | 0.00 | 0.00 | 0.00 | 78 | 1010.5 |
| 20260831093925 | 77 | 256 | 2.0 | 5.0 | 0.00 | 0.00 | 0.00 | 77 | 1010.7 |
| 20260831093420 | 77 | 222 | 3.0 | 5.0 | 0.00 | 0.00 | 0.00 | 77 | 1010.6 |
| 20260831092917 | 77 | 246 | 2.0 | 3.0 | 0.00 | 0.00 | 0.00 | 76 | 1010.8 |
| 20260831092412 | 77 | 229 | 2.0 | 3.0 | 0.00 | 0.00 | 0.00 | 76 | 1011.0 |
| 20260831091907 | 78 | 259 | 2.0 | 5.0 | 0.00 | 0.00 | 0.00 | 75 | 1010.8 |
| 20260831091402 | 78 | 229 | 2.0 | 3.0 | 0.00 | 0.00 | 0.00 | 75 | 1010.9 |
| 20260831090852 | 78 | 207 | 3.0 | 5.0 | 0.00 | 0.00 | 0.00 | 75 | 1011.0 |
| 20260831090348 | 78 | 217 | 4.0 | 6.0 | 0.00 | 0.00 | 0.00 | 75 | 1010.7 |
| 20260831085844 | 78 | 195 | 3.0 | 6.0 | 0.00 | 0.00 | 0.00 | 74 | 1010.8 |
| 20260831085338 | 78 | 218 | 5.0 | 8.0 | 0.00 | 0.00 | 0.00 | 74 | 1010.6 |
| 20260831084833 | 79 | 239 | 4.0 | 7.0 | 0.00 | 0.00 | 0.00 | 74 | 1010.9 |
| 20260831084330 | 79 | 224 | 6.0 | 7.0 | 0.00 | 0.00 | 0.00 | 74 | 1010.7 |
| 20260831083826 | 79 | 213 | 5.0 | 10.0 | 0.00 | 0.00 | 0.00 | 73 | 1010.8 |
| 20260831083321 | 79 | 226 | 6.0 | 8.0 | 0.00 | 0.00 | 0.00 | 74 | 1010.7 |
| 20260831082819 | 79 | 221 | 7.0 | 9.0 | 0.00 | 0.00 | 0.00 | 73 | 1010.5 |
| 20260831082314 | 79 | 221 | 5.0 | 10.0 | 0.00 | 0.00 | 0.00 | 74 | 1010.8 |
| 20260831081810 | 79 | 206 | 4.0 | 7.0 | 0.00 | 0.00 | 0.00 | 74 | 1010.7 |
| 20260831081305 | 79 | 188 | 4.0 | 8.0 | 0.00 | 0.00 | 0.00 | 74 | 1010.8 |
| 20260831080800 | 79 | 168 | 7.0 | 8.0 | 0.00 | 0.00 | 0.00 | 74 | 1010.7 |
| 20260831080255 | 79 | 168 | 6.0 | 8.0 | 0.00 | 0.00 | 0.00 | 73 | 1010.7 |
| 20260831075752 | 79 | 216 | 5.0 | 7.0 | 0.00 | 0.00 | 0.00 | 74 | 1010.8 |
| 20260831075247 | 79 | 193 | 4.0 | 8.0 | 0.00 | 0.00 | 0.00 | 74 | 1010.6 |
| 20260831074746 | 79 | 217 | 5.0 | 8.0 | 0.00 | 0.00 | 0.00 | 74 | 1010.7 |
| 20260831074240 | 80 | 196 | 4.0 | 7.0 | 0.00 | 0.00 | 0.00 | 74 | 1010.7 |
| 20260831073736 | 80 | 212 | 7.0 | 8.0 | 0.00 | 0.00 | 0.00 | 73 | 1010.6 |
| 20260831073235 | 79 | 194 | 4.0 | 7.0 | 0.00 | 0.00 | 0.00 | 74 | 1010.7 |
| 20260831072730 | 79 | 139 | 6.0 | 8.0 | 0.00 | 0.00 | 0.00 | 74 | 1010.6 |
| 20260831072226 | 79 | 189 | 3.0 | 7.0 | 0.00 | 0.00 | 0.00 | 74 | 1010.6 |
| 20260831071721 | 79 | 226 | 3.0 | 5.0 | 0.00 | 0.00 | 0.00 | 75 | 1010.8 |
| 20260831071221 | 79 | 204 | 3.0 | 7.0 | 0.00 | 0.00 | 0.00 | 75 | 1010.6 |
| 20260831070715 | 79 | 155 | 3.0 | 6.0 | 0.00 | 0.00 | 0.00 | 75 | 1010.5 |
| 20260831070209 | 80 | 164 | 4.0 | 5.0 | 0.00 | 0.00 | 0.00 | 75 | 1010.9 |
| 20260831065709 | 80 | 233 | 3.0 | 6.0 | 0.00 | 0.00 | 0.00 | 75 | 1010.7 |
| 20260831065207 | 80 | 174 | 4.0 | 6.0 | 0.00 | 0.00 | 0.00 | 75 | 1010.7 |
| 20260831064702 | 79 | 162 | 5.0 | 8.0 | 0.00 | 0.00 | 0.00 | 75 | 1010.7 |
| 20260831064157 | 79 | 192 | 4.0 | 6.0 | 0.00 | 0.00 | 0.00 | 75 | 1010.8 |
| 20260831063653 | 79 | 223 | 3.0 | 5.0 | 0.00 | 0.00 | 0.00 | 77 | 1010.8 |
| 20260831063143 | 79 | 157 | 5.0 | 7.0 | 0.00 | 0.00 | 0.00 | 76 | 1010.9 |
| 20260831062642 | 79 | 179 | 5.0 | 6.0 | 0.00 | 0.00 | 0.00 | 78 | 1011.0 |
| 20260831062136 | 79 | 190 | 4.0 | 6.0 | 0.00 | 0.00 | 0.00 | 78 | 1010.9 |
| 20260831061634 | 79 | 171 | 4.0 | 6.0 | 0.00 | 0.00 | 0.00 | 78 | 1011.2 |
| 20260831061130 | 78 | 177 | 4.0 | 5.0 | 0.00 | 0.00 | 0.00 | 79 | 1010.9 |
| 20260831060626 | 78 | 185 | 3.0 | 5.0 | 0.00 | 0.00 | 0.00 | 79 | 1011.1 |
| 20260831060120 | 79 | 192 | 4.0 | 5.0 | 0.00 | 0.00 | 0.00 | 79 | 1011.1 |
| 20260831055614 | 79 | 181 | 3.0 | 5.0 | 0.00 | 0.00 | 0.00 | 80 | 1010.9 |
| 20260831055110 | 79 | 180 | 3.0 | 6.0 | 0.00 | 0.00 | 0.00 | 80 | 1011.0 |
| 20260831054609 | 79 | 168 | 4.0 | 5.0 | 0.00 | 0.00 | 0.00 | 80 | 1011.0 |
| 20260831054109 | 79 | 201 | 3.0 | 5.0 | 0.00 | 0.00 | 0.00 | 80 | 1011.1 |
| 20260831053608 | 79 | 162 | 4.0 | 5.0 | 0.00 | 0.00 | 0.00 | 80 | 1010.9 |
| 20260831053102 | 79 | 188 | 4.0 | 8.0 | 0.00 | 0.00 | 0.00 | 79 | 1011.0 |
| 20260831052601 | 79 | 179 | 5.0 | 7.0 | 0.00 | 0.00 | 0.00 | 79 | 1010.9 |
| 20260831052056 | 79 | 166 | 4.0 | 7.0 | 0.00 | 0.00 | 0.00 | 79 | 1010.9 |
| 20260831051554 | 80 | 161 | 4.0 | 10.0 | 0.00 | 0.00 | 0.00 | 79 | 1010.7 |
| 20260831051053 | 80 | 178 | 5.0 | 8.0 | 0.00 | 0.00 | 0.00 | 79 | 1010.6 |
| 20260831050553 | 80 | 175 | 4.0 | 7.0 | 0.00 | 0.00 | 0.00 | 79 | 1010.7 |
| 20260831050051 | 80 | 189 | 4.0 | 8.0 | 0.00 | 0.00 | 0.00 | 79 | 1010.7 |
| 20260831045551 | 80 | 171 | 5.0 | 8.0 | 0.00 | 0.00 | 0.00 | 79 | 1010.7 |
| 20260831045046 | 80 | 240 | 4.0 | 6.0 | 0.00 | 0.00 | 0.00 | 80 | 1010.5 |
| 20260831044541 | 80 | 159 | 6.0 | 10.0 | 0.00 | 0.00 | 0.00 | 79 | 1010.7 |
| 20260831044036 | 80 | 178 | 3.0 | 6.0 | 0.00 | 0.00 | 0.00 | 80 | 1010.8 |
| 20260831043537 | 80 | 153 | 4.0 | 6.0 | 0.00 | 0.00 | 0.00 | 80 | 1010.7 |
| 20260831043032 | 80 | 184 | 4.0 | 6.0 | 0.00 | 0.00 | 0.00 | 79 | 1010.6 |
| 20260831042527 | 80 | 174 | 4.0 | 7.0 | 0.00 | 0.00 | 0.00 | 80 | 1010.7 |
| 20260831042026 | 80 | 159 | 3.0 | 6.0 | 0.00 | 0.00 | 0.00 | 80 | 1010.8 |
| 20260831041521 | 80 | 223 | 3.0 | 8.0 | 0.00 | 0.00 | 0.00 | 80 | 1010.8 |
| 20260831041015 | 80 | 197 | 4.0 | 6.0 | 0.00 | 0.00 | 0.00 | 80 | 1010.8 |
| 20260831040510 | 80 | 156 | 4.0 | 6.0 | 0.00 | 0.00 | 0.00 | 81 | 1010.8 |
| 20260831040009 | 80 | 204 | 4.0 | 6.0 | 0.00 | 0.00 | 0.00 | 81 | 1010.9 |
| 20260831035502 | 80 | 173 | 3.0 | 7.0 | 0.00 | 0.00 | 0.00 | 81 | 1010.8 |
| 20260831034957 | 80 | 184 | 4.0 | 8.0 | 0.00 | 0.00 | 0.00 | 81 | 1010.7 |
| 20260831034451 | 80 | 174 | 4.0 | 7.0 | 0.00 | 0.00 | 0.00 | 81 | 1010.9 |
| 20260831033947 | 80 | 186 | 6.0 | 9.0 | 0.00 | 0.00 | 0.00 | 82 | 1011.0 |
| 20260831033442 | 80 | 191 | 3.0 | 5.0 | 0.00 | 0.00 | 0.00 | 83 | 1010.8 |
| 20260831032937 | 80 | 176 | 3.0 | 5.0 | 0.00 | 0.00 | 0.00 | 83 | 1010.8 |
| 20260831032432 | 80 | 184 | 4.0 | 7.0 | 0.00 | 0.00 | 0.00 | 82 | 1011.0 |
| 20260831031927 | 80 | 172 | 5.0 | 6.0 | 0.00 | 0.00 | 0.00 | 82 | 1011.0 |
| 20260831031427 | 80 | 146 | 3.0 | 5.0 | 0.00 | 0.00 | 0.00 | 83 | 1011.0 |
| 20260831030921 | 79 | 225 | 3.0 | 5.0 | 0.00 | 0.00 | 0.00 | 84 | 1010.7 |
| 20260831030420 | 79 | 205 | 3.0 | 6.0 | 0.00 | 0.00 | 0.00 | 84 | 1011.0 |
| 20260831025919 | 80 | 179 | 3.0 | 3.0 | 0.00 | 0.00 | 0.00 | 84 | 1010.9 |
| 20260831025418 | 80 | 188 | 2.0 | 3.0 | 0.00 | 0.00 | 0.00 | 84 | 1010.9 |
| 20260831024914 | 80 | 162 | 4.0 | 5.0 | 0.00 | 0.00 | 0.00 | 84 | 1011.1 |
| 20260831024413 | 80 | 178 | 3.0 | 5.0 | 0.00 | 0.00 | 0.00 | 84 | 1010.9 |
| 20260831023913 | 80 | 164 | 4.0 | 5.0 | 0.00 | 0.00 | 0.00 | 84 | 1010.9 |
| 20260831023411 | 80 | 180 | 3.0 | 5.0 | 0.00 | 0.00 | 0.00 | 84 | 1011.0 |
| 20260831022907 | 81 | 168 | 3.0 | 5.0 | 0.00 | 0.00 | 0.00 | 83 | 1011.0 |
| 20260831022405 | 81 | 185 | 3.0 | 5.0 | 0.00 | 0.00 | 0.00 | 82 | 1010.9 |
| 20260831021900 | 81 | 172 | 3.0 | 3.0 | 0.00 | 0.00 | 0.00 | 82 | 1011.0 |
| 20260831021400 | 81 | 167 | 3.0 | 6.0 | 0.00 | 0.00 | 0.00 | 82 | 1011.1 |
| 20260831020856 | 81 | 155 | 4.0 | 5.0 | 0.00 | 0.00 | 0.00 | 82 | 1010.9 |
| 20260831020355 | 81 | 158 | 2.0 | 5.0 | 0.00 | 0.00 | 0.00 | 83 | 1011.0 |
| 20260831015851 | 81 | 186 | 3.0 | 6.0 | 0.00 | 0.00 | 0.00 | 83 | 1011.0 |
| 20260831015346 | 82 | 171 | 3.0 | 3.0 | 0.00 | 0.00 | 0.00 | 82 | 1011.1 |
| 20260831014846 | 82 | 183 | 2.0 | 3.0 | 0.00 | 0.00 | 0.00 | 82 | 1010.9 |
| 20260831014341 | 82 | 167 | 3.0 | 3.0 | 0.00 | 0.00 | 0.00 | 82 | 1010.9 |
| 20260831013837 | 82 | 190 | 2.0 | 5.0 | 0.00 | 0.00 | 0.00 | 82 | 1010.9 |
| 20260831013332 | 82 | 203 | 1.0 | 3.0 | 0.00 | 0.00 | 0.00 | 81 | 1010.8 |
| 20260831012826 | 82 | 188 | 3.0 | 3.0 | 0.00 | 0.00 | 0.00 | 81 | 1010.8 |
| 20260831012322 | 83 | 191 | 3.0 | 3.0 | 0.00 | 0.00 | 0.00 | 81 | 1010.7 |
| 20260831011821 | 83 | 186 | 3.0 | 3.0 | 0.00 | 0.00 | 0.00 | 81 | 1010.7 |
| 20260831011316 | 83 | 189 | 3.0 | 5.0 | 0.00 | 0.00 | 0.00 | 81 | 1010.8 |
| 20260831010812 | 83 | 211 | 2.0 | 3.0 | 0.00 | 0.00 | 0.00 | 81 | 1010.6 |
| 20260831010307 | 83 | 206 | 2.0 | 3.0 | 0.00 | 0.00 | 0.00 | 81 | 1010.6 |
| 20260831005803 | 83 | 225 | 2.0 | 2.0 | 0.00 | 0.00 | 0.00 | 81 | 1010.6 |
| 20260831005258 | 84 | 219 | 2.0 | 2.0 | 0.00 | 0.00 | 0.00 | 81 | 1010.6 |
| 20260831004752 | 84 | 250 | 2.0 | 2.0 | 0.00 | 0.00 | 0.00 | 81 | 1010.7 |
| 20260831004248 | 84 | 267 | 1.0 | 1.0 | 0.00 | 0.00 | 0.00 | 82 | 1010.5 |
| 20260831003744 | 84 | 259 | 1.0 | 2.0 | 0.00 | 0.00 | 0.00 | 81 | 1010.6 |
| 20260831003240 | 85 | 274 | 0.0 | 0.0 | 0.00 | 0.00 | 0.00 | 81 | 1010.5 |
| 20260831002739 | 85 | 238 | 2.0 | 3.0 | 0.00 | 0.00 | 0.00 | 80 | 1010.4 |
| 20260831002238 | 85 | 249 | 1.0 | 2.0 | 0.00 | 0.00 | 0.00 | 80 | 1010.4 |
| 20260831001735 | 85 | 195 | 2.0 | 2.0 | 0.00 | 0.00 | 0.00 | 79 | 1010.5 |
| 20260831001229 | 86 | 186 | 2.0 | 2.0 | 0.00 | 0.00 | 0.00 | 79 | 1010.4 |
| 20260831000726 | 86 | 233 | 1.0 | 2.0 | 0.00 | 0.00 | 0.00 | 79 | 1010.4 |
| 20260831000221 | 86 | 254 | 2.0 | 2.0 | 0.00 | 0.00 | 0.00 | 78 | 1010.2 |
| 20260830235720 | 86 | 184 | 3.0 | 5.0 | 0.00 | 0.00 | 0.00 | 78 | 1010.0 |
| 20260830235215 | 87 | 189 | 2.0 | 3.0 | 0.00 | 0.00 | 0.00 | 77 | 1010.2 |
| 20260830234710 | 87 | 253 | 2.0 | 5.0 | 0.00 | 0.00 | 0.00 | 76 | 1010.3 |
| 20260830234206 | 87 | 181 | 3.0 | 5.0 | 0.00 | 0.00 | 0.00 | 77 | 1009.9 |
| 20260830233701 | 87 | 161 | 6.0 | 7.0 | 0.00 | 0.00 | 0.00 | 77 | 1009.8 |
| 20260830233157 | 88 | 246 | 1.0 | 5.0 | 0.00 | 0.00 | 0.00 | 78 | 1009.9 |
| 20260830232652 | 88 | 192 | 3.0 | 5.0 | 0.00 | 0.00 | 0.00 | 77 | 1010.0 |
| 20260830232148 | 88 | 219 | 3.0 | 7.0 | 0.00 | 0.00 | 0.00 | 76 | 1009.8 |
| 20260830231645 | 88 | 182 | 6.0 | 7.0 | 0.00 | 0.00 | 0.00 | 76 | 1009.8 |
| 20260830231144 | 89 | 169 | 4.0 | 6.0 | 0.00 | 0.00 | 0.00 | 76 | 1009.9 |
| 20260830230639 | 89 | 216 | 5.0 | 6.0 | 0.00 | 0.00 | 0.00 | 76 | 1009.8 |
| 20260830230139 | 88 | 195 | 4.0 | 6.0 | 0.00 | 0.00 | 0.00 | 77 | 1009.8 |
| 20260830225634 | 88 | 182 | 5.0 | 7.0 | 0.00 | 0.00 | 0.00 | 78 | 1009.9 |
| 20260830225128 | 88 | 182 | 4.0 | 5.0 | 0.00 | 0.00 | 0.00 | 79 | 1009.9 |
| 20260830224627 | 89 | 202 | 5.0 | 6.0 | 0.00 | 0.00 | 0.00 | 78 | 1010.0 |
| 20260830224123 | 89 | 171 | 3.0 | 3.0 | 0.00 | 0.00 | 0.00 | 77 | 1009.9 |
| 20260830223620 | 89 | 215 | 3.0 | 5.0 | 0.00 | 0.00 | 0.00 | 78 | 1009.9 |
| 20260830223114 | 87 | 172 | 2.0 | 5.0 | 0.00 | 0.00 | 0.00 | 81 | 1010.0 |
| 20260830222609 | 87 | 159 | 3.0 | 7.0 | 0.00 | 0.00 | 0.00 | 81 | 1010.0 |
| 20260830222105 | 87 | 228 | 4.0 | 6.0 | 0.00 | 0.00 | 0.00 | 81 | 1009.9 |
| 20260830221600 | 86 | 199 | 4.0 | 5.0 | 0.00 | 0.00 | 0.00 | 81 | 1009.8 |
| 20260830221056 | 85 | 152 | 4.0 | 6.0 | 0.00 | 0.00 | 0.00 | 82 | 1009.7 |
| 20260830220551 | 85 | 179 | 3.0 | 5.0 | 0.00 | 0.00 | 0.00 | 83 | 1009.7 |
| 20260830220049 | 85 | 203 | 3.0 | 8.0 | 0.00 | 0.00 | 0.00 | 82 | 1009.8 |
| 20260830215544 | 85 | 170 | 3.0 | 8.0 | 0.00 | 0.00 | 0.00 | 82 | 1009.7 |
| 20260830215038 | 85 | 182 | 3.0 | 7.0 | 0.00 | 0.00 | 0.00 | 81 | 1009.9 |
| 20260830214533 | 85 | 187 | 3.0 | 11.0 | 0.00 | 0.00 | 0.00 | 80 | 1009.6 |
| 20260830214028 | 85 | 168 | 3.0 | 9.0 | 0.00 | 0.00 | 0.00 | 80 | 1010.3 |
| 20260830213527 | 85 | 186 | 3.0 | 7.0 | 0.00 | 0.00 | 0.00 | 79 | 1010.0 |
| 20260830213023 | 85 | 111 | 5.0 | 8.0 | 0.00 | 0.00 | 0.00 | 80 | 1010.0 |
| 20260830212518 | 84 | 182 | 1.0 | 5.0 | 0.00 | 0.00 | 0.00 | 80 | 1010.3 |
| 20260830212013 | 84 | 186 | 4.0 | 8.0 | 0.00 | 0.00 | 0.00 | 79 | 1010.4 |
| 20260830211508 | 85 | 158 | 4.0 | 7.0 | 0.00 | 0.00 | 0.00 | 79 | 1010.5 |
| 20260830211003 | 84 | 169 | 5.0 | 9.0 | 0.00 | 0.00 | 0.00 | 78 | 1010.4 |
| 20260830210503 | 84 | 214 | 5.0 | 8.0 | 0.00 | 0.00 | 0.00 | 78 | 1010.2 |
| 20260830210002 | 84 | 174 | 5.0 | 8.0 | 0.00 | 0.00 | 0.00 | 77 | 1010.5 |
| 20260830205500 | 85 | 112 | 5.0 | 7.0 | 0.00 | 0.00 | 0.00 | 77 | 1010.5 |
| 20260830204955 | 85 | 174 | 5.0 | 7.0 | 0.00 | 0.00 | 0.00 | 77 | 1010.8 |
| 20260830204454 | 85 | 210 | 3.0 | 6.0 | 0.00 | 0.00 | 0.00 | 77 | 1010.7 |
| 20260830203949 | 85 | 202 | 4.0 | 9.0 | 0.00 | 0.00 | 0.00 | 76 | 1010.6 |
| 20260830203446 | 85 | 184 | 5.0 | 8.0 | 0.00 | 0.00 | 0.00 | 76 | 1010.6 |
| 20260830202944 | 85 | 140 | 3.0 | 5.0 | 0.00 | 0.00 | 0.00 | 77 | 1010.7 |
| 20260830202440 | 85 | 194 | 2.0 | 3.0 | 0.00 | 0.00 | 0.00 | 76 | 1010.8 |
| 20260830201936 | 84 | 165 | 3.0 | 8.0 | 0.00 | 0.00 | 0.00 | 75 | 1010.9 |
| 20260830201429 | 84 | 241 | 4.0 | 8.0 | 0.00 | 0.00 | 0.00 | 75 | 1010.8 |
| 20260830200925 | 85 | 239 | 1.0 | 5.0 | 0.00 | 0.00 | 0.00 | 75 | 1010.9 |
| 20260830200420 | 85 | 195 | 4.0 | 6.0 | 0.00 | 0.00 | 0.00 | 74 | 1010.9 |
| 20260830195914 | 84 | 143 | 4.0 | 7.0 | 0.00 | 0.00 | 0.00 | 75 | 1011.2 |
| 20260830195415 | 84 | 217 | 5.0 | 8.0 | 0.00 | 0.00 | 0.00 | 74 | 1011.0 |
| 20260830194913 | 85 | 190 | 5.0 | 8.0 | 0.00 | 0.00 | 0.00 | 73 | 1011.3 |
| 20260830194412 | 85 | 223 | 4.0 | 5.0 | 0.00 | 0.00 | 0.00 | 75 | 1011.2 |
| 20260830193912 | 84 | 190 | 4.0 | 7.0 | 0.00 | 0.00 | 0.00 | 75 | 1011.4 |
| 20260830193411 | 84 | 186 | 2.0 | 6.0 | 0.00 | 0.00 | 0.00 | 76 | 1011.4 |
| 20260830192907 | 83 | 176 | 5.0 | 8.0 | 0.00 | 0.00 | 0.00 | 75 | 1011.2 |
| 20260830192403 | 83 | 176 | 3.0 | 5.0 | 0.00 | 0.00 | 0.00 | 78 | 1011.2 |
| 20260830191858 | 82 | 195 | 4.0 | 7.0 | 0.00 | 0.00 | 0.00 | 78 | 1011.5 |